ICX250 EGBB-EIKN

Flight info

Callsign ICX250
Flight time 1h 16m
Altitude 22000
Route LUVUM DCT NANTI Y53 WAL L10 PENIL M144 BAGSO DCT DUB DCT OLAPO DCT CON
Aircraft AT46/M-SDFGIRY/S

Departure

Time 2026-04-28 15:17
Airport Birmingham Airport (EGBB)

Arrival

Time 2026-04-28 16:33
Airport Ireland West Airport Knock (EIKN)
Time Latitude Longitude Altitude Speed Heading
2026-04-28 14:27 52.44975 -1.73180 320 ft 0 kts 146°
2026-04-28 14:28 52.44971 -1.73175 320 ft 0 kts 146°
2026-04-28 14:30 52.44971 -1.73176 320 ft 0 kts 146°
2026-04-28 15:02 52.44971 -1.73177 320 ft 0 kts 146°
2026-04-28 15:06 52.44993 -1.73200 320 ft 5 kts 153°
2026-04-28 15:06 52.45027 -1.73200 319 ft 4 kts 216°
2026-04-28 15:07 52.45035 -1.73184 320 ft 1 kts 237°
2026-04-28 15:08 52.45033 -1.73190 320 ft 0 kts 237°
2026-04-28 15:08 52.45016 -1.73231 320 ft 7 kts 236°
2026-04-28 15:08 52.44980 -1.73317 319 ft 11 kts 236°
2026-04-28 15:08 52.44933 -1.73430 319 ft 13 kts 236°
2026-04-28 15:09 52.44897 -1.73543 320 ft 11 kts 267°
2026-04-28 15:09 52.44934 -1.73633 319 ft 9 kts 327°
2026-04-28 15:09 52.44984 -1.73687 318 ft 8 kts 326°
2026-04-28 15:09 52.45015 -1.73721 319 ft 8 kts 325°
2026-04-28 15:10 52.45076 -1.73761 320 ft 7 kts 344°
2026-04-28 15:10 52.45116 -1.73791 320 ft 7 kts 325°
2026-04-28 15:10 52.45158 -1.73838 320 ft 8 kts 326°
2026-04-28 15:10 52.45212 -1.73899 320 ft 10 kts 326°
2026-04-28 15:11 52.45279 -1.73972 320 ft 18 kts 326°
2026-04-28 15:11 52.45318 -1.74043 320 ft 6 kts 282°
2026-04-28 15:11 52.45337 -1.74121 320 ft 8 kts 296°
2026-04-28 15:11 52.45366 -1.74215 320 ft 11 kts 295°
2026-04-28 15:12 52.45405 -1.74343 320 ft 14 kts 298°
2026-04-28 15:12 52.45451 -1.74493 320 ft 15 kts 296°
2026-04-28 15:12 52.45520 -1.74623 320 ft 15 kts 326°
2026-04-28 15:12 52.45612 -1.74726 315 ft 18 kts 326°
2026-04-28 15:13 52.45725 -1.74848 308 ft 21 kts 325°
2026-04-28 15:13 52.45853 -1.74992 304 ft 23 kts 325°
2026-04-28 15:13 52.45988 -1.75143 301 ft 24 kts 327°
2026-04-28 15:13 52.46125 -1.75295 300 ft 24 kts 325°
2026-04-28 15:14 52.46262 -1.75448 298 ft 24 kts 327°
2026-04-28 15:14 52.46396 -1.75597 298 ft 23 kts 327°
2026-04-28 15:14 52.46523 -1.75737 300 ft 18 kts 326°
2026-04-28 15:14 52.46608 -1.75832 306 ft 12 kts 324°
2026-04-28 15:15 52.46634 -1.75911 303 ft 9 kts 258°
2026-04-28 15:15 52.46619 -1.75955 302 ft 5 kts 234°
2026-04-28 15:15 52.46618 -1.75958 302 ft 0 kts 234°
2026-04-28 15:16 52.46612 -1.75971 302 ft 5 kts 235°
2026-04-28 15:16 52.46581 -1.76048 301 ft 10 kts 235°
2026-04-28 15:16 52.46522 -1.76065 304 ft 8 kts 150°
2026-04-28 15:16 52.46516 -1.76058 304 ft 0 kts 146°
2026-04-28 15:17 52.46290 -1.75808 306 ft 78 kts 144°
2026-04-28 15:17 52.45679 -1.75111 373 ft 127 kts 143°
2026-04-28 15:17 52.44937 -1.74353 1028 ft 126 kts 145°
2026-04-28 15:18 52.44177 -1.73513 1632 ft 134 kts 141°
2026-04-28 15:18 52.43439 -1.72599 2362 ft 133 kts 139°
2026-04-28 15:18 52.42696 -1.71667 3049 ft 135 kts 136°
2026-04-28 15:18 52.41906 -1.70741 3460 ft 148 kts 137°
2026-04-28 15:19 52.41021 -1.69735 3813 ft 161 kts 136°
2026-04-28 15:19 52.40426 -1.68303 4217 ft 150 kts 90°
2026-04-28 15:19 52.40478 -1.66640 4742 ft 146 kts 80°
2026-04-28 15:19 52.40623 -1.64990 5292 ft 146 kts 77°
2026-04-28 15:20 52.40824 -1.63348 5815 ft 149 kts 76°
2026-04-28 15:20 52.41142 -1.61581 5908 ft 174 kts 60°
2026-04-28 15:20 52.42159 -1.60456 5948 ft 190 kts 18°
2026-04-28 15:20 52.43494 -1.60096 5957 ft 199 kts 16°
2026-04-28 15:21 52.44857 -1.59704 5963 ft 203 kts 17°
2026-04-28 15:21 52.46259 -1.59358 5963 ft 208 kts
2026-04-28 15:21 52.47750 -1.59559 5966 ft 222 kts
2026-04-28 15:21 52.49319 -1.59852 5976 ft 232 kts
2026-04-28 15:22 52.50946 -1.60121 5977 ft 238 kts
2026-04-28 15:22 52.52573 -1.60808 5973 ft 248 kts 343°
2026-04-28 15:22 52.54150 -1.62028 5971 ft 253 kts 340°
2026-04-28 15:22 52.55735 -1.63314 5973 ft 255 kts 340°
2026-04-28 15:23 52.57343 -1.64577 5974 ft 257 kts 341°
2026-04-28 15:23 52.58976 -1.65776 5975 ft 258 kts 342°
2026-04-28 15:23 52.60625 -1.66948 5975 ft 258 kts 342°
2026-04-28 15:23 52.62274 -1.68128 5977 ft 259 kts 342°
2026-04-28 15:24 52.63922 -1.69323 5976 ft 259 kts 342°
2026-04-28 15:24 52.65577 -1.70510 5976 ft 259 kts 342°
2026-04-28 15:24 52.67232 -1.71700 5977 ft 260 kts 342°
2026-04-28 15:24 52.68864 -1.72877 5977 ft 260 kts 342°
2026-04-28 15:25 52.70519 -1.74072 5975 ft 260 kts 342°
2026-04-28 15:25 52.72080 -1.75582 5974 ft 266 kts 323°
2026-04-28 15:25 52.73285 -1.77819 6396 ft 250 kts 314°
2026-04-28 15:25 52.74321 -1.79984 7034 ft 231 kts 314°
2026-04-28 15:26 52.75283 -1.82000 7636 ft 217 kts 315°
2026-04-28 15:26 52.76217 -1.83870 8204 ft 206 kts 316°
2026-04-28 15:26 52.77131 -1.85630 8742 ft 198 kts 317°
2026-04-28 15:26 52.78040 -1.87340 9167 ft 198 kts 317°
2026-04-28 15:27 52.78948 -1.89061 9560 ft 199 kts 317°
2026-04-28 15:27 52.79859 -1.90797 9956 ft 200 kts 317°
2026-04-28 15:27 52.80769 -1.92546 10341 ft 201 kts 317°
2026-04-28 15:27 52.81683 -1.94307 10725 ft 202 kts 317°
2026-04-28 15:28 52.82601 -1.96067 11097 ft 203 kts 316°
2026-04-28 15:28 52.83523 -1.97840 11462 ft 203 kts 316°
2026-04-28 15:28 52.84445 -1.99618 11835 ft 204 kts 316°
2026-04-28 15:28 52.85368 -2.01403 12191 ft 205 kts 316°
2026-04-28 15:29 52.86296 -2.03190 12547 ft 205 kts 317°
2026-04-28 15:29 52.87230 -2.04991 12893 ft 206 kts 317°
2026-04-28 15:29 52.88166 -2.06799 13234 ft 207 kts 318°
2026-04-28 15:29 52.89108 -2.08616 13562 ft 208 kts 318°
2026-04-28 15:30 52.90051 -2.10440 13905 ft 208 kts 318°
2026-04-28 15:30 52.90995 -2.12266 14234 ft 209 kts 319°
2026-04-28 15:30 52.91947 -2.14106 14554 ft 210 kts 319°
2026-04-28 15:30 52.92901 -2.15955 14849 ft 212 kts 319°
2026-04-28 15:31 52.93862 -2.17816 15147 ft 213 kts 319°
2026-04-28 15:31 52.94811 -2.19657 15442 ft 213 kts 319°
2026-04-28 15:31 52.95776 -2.21528 15754 ft 214 kts 320°
2026-04-28 15:31 52.96743 -2.23406 16030 ft 215 kts 320°
2026-04-28 15:32 52.97716 -2.25297 16310 ft 216 kts 320°
2026-04-28 15:32 52.98692 -2.27194 16582 ft 217 kts 320°
2026-04-28 15:32 52.99669 -2.29101 16849 ft 217 kts 321°
2026-04-28 15:32 53.00650 -2.31012 17114 ft 217 kts 321°
2026-04-28 15:33 53.01633 -2.32928 17355 ft 218 kts 321°
2026-04-28 15:33 53.02619 -2.34852 17599 ft 219 kts 321°
2026-04-28 15:33 53.03610 -2.36786 17845 ft 220 kts 321°
2026-04-28 15:33 53.04599 -2.38726 18076 ft 220 kts 321°
2026-04-28 15:34 53.05594 -2.40670 18299 ft 221 kts 321°
2026-04-28 15:34 53.06592 -2.42626 18520 ft 222 kts 322°
2026-04-28 15:34 53.07591 -2.44586 18739 ft 223 kts 322°
2026-04-28 15:34 53.08596 -2.46555 18945 ft 224 kts 322°
2026-04-28 15:35 53.09604 -2.48532 19146 ft 224 kts 322°
2026-04-28 15:35 53.11629 -2.52513 19534 ft 226 kts 322°
2026-04-28 15:35 53.12646 -2.54514 19724 ft 227 kts 322°
2026-04-28 15:36 53.13662 -2.56522 19912 ft 227 kts 321°
2026-04-28 15:36 53.14662 -2.58569 20088 ft 229 kts 320°
2026-04-28 15:36 53.15641 -2.60677 20262 ft 231 kts 319°
2026-04-28 15:36 53.16616 -2.62815 20400 ft 233 kts 319°
2026-04-28 15:37 53.17598 -2.64976 20540 ft 235 kts 319°
2026-04-28 15:37 53.18563 -2.67128 20740 ft 233 kts 319°
2026-04-28 15:37 53.19531 -2.69289 20914 ft 233 kts 319°
2026-04-28 15:37 53.20505 -2.71447 21049 ft 233 kts 319°
2026-04-28 15:38 53.21484 -2.73609 21193 ft 234 kts 319°
2026-04-28 15:38 53.22462 -2.75776 21333 ft 234 kts 319°
2026-04-28 15:38 53.23446 -2.77954 21469 ft 235 kts 320°
2026-04-28 15:38 53.24431 -2.80140 21612 ft 236 kts 319°
2026-04-28 15:39 53.25413 -2.82337 21738 ft 236 kts 319°
2026-04-28 15:39 53.26399 -2.84541 21865 ft 237 kts 319°
2026-04-28 15:39 53.27387 -2.86747 22005 ft 237 kts 319°
2026-04-28 15:39 53.28374 -2.88952 22134 ft 237 kts 319°
2026-04-28 15:40 53.29358 -2.91160 22279 ft 237 kts 320°
2026-04-28 15:40 53.30352 -2.93380 22346 ft 240 kts 320°
2026-04-28 15:40 53.31363 -2.95641 22375 ft 245 kts 319°
2026-04-28 15:40 53.32393 -2.97941 22393 ft 249 kts 319°
2026-04-28 15:41 53.33442 -3.00286 22399 ft 253 kts 319°
2026-04-28 15:41 53.34502 -3.02667 22398 ft 257 kts 319°
2026-04-28 15:41 53.35574 -3.05080 22405 ft 262 kts 318°
2026-04-28 15:41 53.36687 -3.07589 22404 ft 274 kts 318°
2026-04-28 15:42 53.37851 -3.10190 22410 ft 284 kts 317°
2026-04-28 15:42 53.39053 -3.12887 22402 ft 293 kts 317°
2026-04-28 15:42 53.40267 -3.15686 22406 ft 301 kts 315°
2026-04-28 15:42 53.41476 -3.18589 22404 ft 306 kts 315°
2026-04-28 15:43 53.42713 -3.21520 22400 ft 310 kts 315°
2026-04-28 15:43 53.43974 -3.24475 22400 ft 313 kts 315°
2026-04-28 15:43 53.45226 -3.27419 22399 ft 315 kts 315°
2026-04-28 15:43 53.46501 -3.30420 22399 ft 317 kts 315°
2026-04-28 15:44 53.47788 -3.33434 22399 ft 318 kts 315°
2026-04-28 15:44 53.49074 -3.36463 22402 ft 319 kts 315°
2026-04-28 15:44 53.50362 -3.39506 22402 ft 320 kts 314°
2026-04-28 15:44 53.51655 -3.42555 22399 ft 321 kts 314°
2026-04-28 15:45 53.52948 -3.45613 22407 ft 321 kts 314°
2026-04-28 15:45 53.54240 -3.48677 22400 ft 321 kts 314°
2026-04-28 15:45 53.55534 -3.51742 22407 ft 322 kts 314°
2026-04-28 15:45 53.56826 -3.54815 22400 ft 322 kts 314°
2026-04-28 15:46 53.58120 -3.57890 22400 ft 322 kts 314°
2026-04-28 15:46 53.59414 -3.60971 22400 ft 322 kts 314°
2026-04-28 15:46 53.60706 -3.64047 22411 ft 322 kts 313°
2026-04-28 15:46 53.61642 -3.67550 22410 ft 336 kts 292°
2026-04-28 15:47 53.62023 -3.71469 22410 ft 342 kts 280°
2026-04-28 15:47 53.62124 -3.75487 22413 ft 344 kts 277°
2026-04-28 15:47 53.62185 -3.79517 22416 ft 344 kts 277°
2026-04-28 15:47 53.62295 -3.83539 22413 ft 343 kts 279°
2026-04-28 15:48 53.62469 -3.87546 22412 ft 344 kts 280°
2026-04-28 15:48 53.62646 -3.91563 22412 ft 344 kts 279°
2026-04-28 15:48 53.62807 -3.95587 22412 ft 344 kts 279°
2026-04-28 15:48 53.62964 -3.99615 22412 ft 344 kts 279°
2026-04-28 15:49 53.63122 -4.03647 22412 ft 346 kts 279°
2026-04-28 15:49 53.63281 -4.07703 22412 ft 347 kts 279°
2026-04-28 15:49 53.63439 -4.11766 22412 ft 349 kts 279°
2026-04-28 15:49 53.63596 -4.15852 22412 ft 350 kts 279°
2026-04-28 15:50 53.63751 -4.19888 22412 ft 350 kts 279°
2026-04-28 15:50 53.63908 -4.23974 22412 ft 349 kts 279°
2026-04-28 15:50 53.64058 -4.28052 22412 ft 348 kts 279°
2026-04-28 15:50 53.64210 -4.32117 22411 ft 347 kts 279°
2026-04-28 15:51 53.64359 -4.36171 22411 ft 346 kts 279°
2026-04-28 15:51 53.64508 -4.40217 22412 ft 346 kts 279°
2026-04-28 15:51 53.64656 -4.44260 22412 ft 346 kts 279°
2026-04-28 15:51 53.64801 -4.48302 22413 ft 345 kts 279°
2026-04-28 15:52 53.64945 -4.52340 22412 ft 345 kts 279°
2026-04-28 15:52 53.65085 -4.56371 22414 ft 345 kts 279°
2026-04-28 15:52 53.65227 -4.60407 22412 ft 345 kts 279°
2026-04-28 15:52 53.65365 -4.64441 22412 ft 345 kts 279°
2026-04-28 15:53 53.65504 -4.68482 22412 ft 346 kts 279°
2026-04-28 15:53 53.65642 -4.72538 22412 ft 347 kts 279°
2026-04-28 15:53 53.65778 -4.76611 22416 ft 349 kts 279°
2026-04-28 15:53 53.65912 -4.80694 22420 ft 349 kts 279°
2026-04-28 15:54 53.66048 -4.84789 22421 ft 350 kts 279°
2026-04-28 15:54 53.66181 -4.88888 22421 ft 351 kts 279°
2026-04-28 15:54 53.66317 -4.92994 22422 ft 351 kts 279°
2026-04-28 15:54 53.66449 -4.97100 22422 ft 351 kts 278°
2026-04-28 15:55 53.66576 -5.01157 22422 ft 351 kts 279°
2026-04-28 15:55 53.66706 -5.05268 22422 ft 351 kts 278°
2026-04-28 15:55 53.66833 -5.09382 22422 ft 351 kts 278°
2026-04-28 15:55 53.66962 -5.13491 22422 ft 351 kts 278°
2026-04-28 15:56 53.67085 -5.17609 22422 ft 351 kts 278°
2026-04-28 15:56 53.67204 -5.21724 22422 ft 351 kts 278°
2026-04-28 15:56 53.67324 -5.25832 22421 ft 351 kts 278°
2026-04-28 15:56 53.67443 -5.29940 22421 ft 351 kts 278°
2026-04-28 15:57 53.67557 -5.34044 22421 ft 350 kts 278°
2026-04-28 15:57 53.67673 -5.38147 22421 ft 350 kts 278°
2026-04-28 15:57 53.67786 -5.42252 22422 ft 350 kts 278°
2026-04-28 15:57 53.67895 -5.46350 22422 ft 350 kts 278°
2026-04-28 15:58 53.67851 -5.50455 22419 ft 354 kts 265°
2026-04-28 15:58 53.67231 -5.54423 22422 ft 357 kts 252°
2026-04-28 15:58 53.66303 -5.58303 22423 ft 356 kts 249°
2026-04-28 15:58 53.65340 -5.62138 22422 ft 354 kts 249°
2026-04-28 15:59 53.64433 -5.65986 22422 ft 352 kts 252°
2026-04-28 15:59 53.63861 -5.68599 22422 ft 352 kts 252°
2026-04-28 15:59 53.62749 -5.73721 22422 ft 351 kts 252°
2026-04-28 15:59 53.61893 -5.77562 22423 ft 350 kts 251°
2026-04-28 16:00 53.61038 -5.81394 22427 ft 350 kts 252°
2026-04-28 16:00 53.60184 -5.85225 22430 ft 349 kts 252°
2026-04-28 16:00 53.59329 -5.89045 22430 ft 349 kts 252°
2026-04-28 16:00 53.58475 -5.92863 22431 ft 349 kts 252°
2026-04-28 16:01 53.57619 -5.96683 22431 ft 348 kts 252°
2026-04-28 16:01 53.56762 -6.00492 22430 ft 348 kts 252°
2026-04-28 16:01 53.55905 -6.04303 22430 ft 348 kts 251°
2026-04-28 16:01 53.55047 -6.08108 22431 ft 348 kts 251°
2026-04-28 16:02 53.54190 -6.11908 22432 ft 348 kts 252°
2026-04-28 16:02 53.53330 -6.15707 22431 ft 348 kts 252°
2026-04-28 16:02 53.52468 -6.19505 22430 ft 348 kts 251°
2026-04-28 16:02 53.51606 -6.23296 22431 ft 348 kts 251°
2026-04-28 16:03 53.50752 -6.27093 22432 ft 345 kts 253°
2026-04-28 16:03 53.50409 -6.30991 22431 ft 334 kts 279°
2026-04-28 16:03 53.50946 -6.34712 22427 ft 324 kts 299°
2026-04-28 16:03 53.51935 -6.38086 22424 ft 321 kts 306°
2026-04-28 16:04 53.53011 -6.41376 22423 ft 321 kts 306°
2026-04-28 16:04 53.54044 -6.44659 22424 ft 323 kts 304°
2026-04-28 16:04 53.55031 -6.48060 22425 ft 323 kts 303°
2026-04-28 16:04 53.55687 -6.50356 22430 ft 323 kts 303°
2026-04-28 16:05 53.56984 -6.54864 22431 ft 323 kts 303°
2026-04-28 16:05 53.57962 -6.58272 22421 ft 324 kts 303°
2026-04-28 16:05 53.58942 -6.61685 22414 ft 324 kts 303°
2026-04-28 16:05 53.59920 -6.65099 22404 ft 324 kts 303°
2026-04-28 16:06 53.60898 -6.68522 22404 ft 324 kts 303°
2026-04-28 16:06 53.61872 -6.71936 22401 ft 324 kts 303°
2026-04-28 16:06 53.62845 -6.75349 22401 ft 323 kts 303°
2026-04-28 16:06 53.63817 -6.78757 22402 ft 323 kts 303°
2026-04-28 16:07 53.64785 -6.82168 22410 ft 322 kts 303°
2026-04-28 16:07 53.65754 -6.85577 22409 ft 322 kts 303°
2026-04-28 16:07 53.67685 -6.92390 22411 ft 322 kts 303°
2026-04-28 16:08 53.68647 -6.95797 22412 ft 322 kts 303°
2026-04-28 16:08 53.69609 -6.99202 22411 ft 322 kts 303°
2026-04-28 16:08 53.70571 -7.02612 22417 ft 322 kts 302°
2026-04-28 16:09 53.72486 -7.09430 22418 ft 321 kts 302°
2026-04-28 16:09 53.73444 -7.12837 22412 ft 322 kts 302°
2026-04-28 16:09 53.74400 -7.16254 22413 ft 321 kts 302°
2026-04-28 16:10 53.76307 -7.23076 22401 ft 321 kts 302°
2026-04-28 16:10 53.77261 -7.26493 22396 ft 321 kts 302°
2026-04-28 16:10 53.79581 -7.32752 22402 ft 310 kts 318°
2026-04-28 16:11 53.82491 -7.38099 22398 ft 309 kts 320°
2026-04-28 16:11 53.84867 -7.42624 22393 ft 310 kts 318°
2026-04-28 16:12 53.88144 -7.49026 22403 ft 309 kts 318°
2026-04-28 16:12 53.89555 -7.51778 22402 ft 309 kts 318°
2026-04-28 16:13 53.92376 -7.57291 22400 ft 309 kts 317°
2026-04-28 16:13 53.93328 -7.59154 22402 ft 309 kts 317°
2026-04-28 16:13 53.96145 -7.64681 22410 ft 309 kts 317°
2026-04-28 16:14 53.98890 -7.70318 22315 ft 316 kts 308°
2026-04-28 16:14 54.00052 -7.77941 20689 ft 348 kts 282°
2026-04-28 16:15 54.00724 -7.86024 19619 ft 342 kts 284°
2026-04-28 16:15 54.01162 -7.89985 19132 ft 339 kts 286°
2026-04-28 16:15 54.01604 -7.93910 18654 ft 338 kts 285°
2026-04-28 16:16 54.02438 -8.01718 17744 ft 334 kts 285°
2026-04-28 16:16 54.02851 -8.05588 17319 ft 331 kts 285°
2026-04-28 16:17 54.03660 -8.13247 16494 ft 327 kts 285°
2026-04-28 16:17 54.04057 -8.17033 16067 ft 324 kts 285°
2026-04-28 16:17 54.04451 -8.20791 15650 ft 321 kts 284°
2026-04-28 16:17 54.04665 -8.24569 15198 ft 323 kts 271°
2026-04-28 16:18 54.04371 -8.28364 14795 ft 323 kts 262°
2026-04-28 16:18 54.03924 -8.32097 14388 ft 321 kts 261°
2026-04-28 16:18 54.03478 -8.35804 14007 ft 319 kts 262°
2026-04-28 16:18 54.03100 -8.39507 13584 ft 317 kts 263°
2026-04-28 16:19 54.02760 -8.43192 13188 ft 314 kts 263°
2026-04-28 16:19 54.02416 -8.46792 12797 ft 311 kts 263°
2026-04-28 16:19 54.02065 -8.50413 12395 ft 309 kts 263°
2026-04-28 16:19 54.01714 -8.54009 12006 ft 307 kts 263°
2026-04-28 16:20 54.01365 -8.57572 11633 ft 305 kts 263°
2026-04-28 16:20 54.01019 -8.61110 11380 ft 299 kts 262°
2026-04-28 16:20 54.00685 -8.64510 11376 ft 286 kts 262°
2026-04-28 16:20 54.00365 -8.67769 11347 ft 270 kts 263°
2026-04-28 16:21 54.00080 -8.70805 11189 ft 251 kts 263°
2026-04-28 16:21 53.99813 -8.73643 11024 ft 236 kts 263°
2026-04-28 16:21 53.99550 -8.76314 10859 ft 224 kts 263°
2026-04-28 16:21 53.99288 -8.78900 10654 ft 220 kts 262°
2026-04-28 16:22 53.99035 -8.81448 10338 ft 218 kts 262°
2026-04-28 16:22 53.98783 -8.83985 10017 ft 216 kts 262°
2026-04-28 16:22 53.98524 -8.86410 9837 ft 202 kts 261°
2026-04-28 16:22 53.98263 -8.88702 9619 ft 193 kts 260°
2026-04-28 16:23 53.98007 -8.90897 9392 ft 187 kts 260°
2026-04-28 16:23 53.97757 -8.93036 9148 ft 183 kts 260°
2026-04-28 16:23 53.97509 -8.95137 8889 ft 180 kts 259°
2026-04-28 16:23 53.97263 -8.97211 8593 ft 178 kts 259°
2026-04-28 16:24 53.97020 -8.99258 8184 ft 176 kts 259°
2026-04-28 16:24 53.96779 -9.01285 7779 ft 174 kts 259°
2026-04-28 16:24 53.96543 -9.03287 7369 ft 172 kts 259°
2026-04-28 16:24 53.96309 -9.05269 6972 ft 170 kts 260°
2026-04-28 16:25 53.96078 -9.07221 6590 ft 167 kts 260°
2026-04-28 16:25 53.95849 -9.09150 6190 ft 166 kts 260°
2026-04-28 16:25 53.95624 -9.11057 5794 ft 164 kts 260°
2026-04-28 16:25 53.95298 -9.12861 5372 ft 163 kts 234°
2026-04-28 16:26 53.94363 -9.13830 4957 ft 155 kts 186°
2026-04-28 16:26 53.93314 -9.14013 4573 ft 152 kts 177°
2026-04-28 16:26 53.92267 -9.13984 4103 ft 150 kts 172°
2026-04-28 16:26 53.91234 -9.13801 3550 ft 149 kts 168°
2026-04-28 16:27 53.90207 -9.13506 3139 ft 151 kts 165°
2026-04-28 16:27 53.89182 -9.13141 2954 ft 146 kts 164°
2026-04-28 16:27 53.87733 -9.11465 2060 ft 122 kts 94°
2026-04-28 16:28 53.87746 -9.10104 2018 ft 112 kts 86°
2026-04-28 16:28 53.87831 -9.08821 2004 ft 112 kts 81°
2026-04-28 16:28 53.87971 -9.07503 2005 ft 113 kts 79°
2026-04-28 16:28 53.88123 -9.06195 2008 ft 113 kts 79°
2026-04-28 16:29 53.88451 -9.03581 2010 ft 114 kts 78°
2026-04-28 16:29 53.88780 -9.00959 2006 ft 114 kts 78°
2026-04-28 16:30 53.88941 -8.99643 2010 ft 115 kts 79°
2026-04-28 16:30 53.89101 -8.98309 2012 ft 116 kts 79°
2026-04-28 16:30 53.89262 -8.96962 2006 ft 117 kts 79°
2026-04-28 16:30 53.89420 -8.95610 1996 ft 118 kts 79°
2026-04-28 16:31 53.89572 -8.94249 1854 ft 115 kts 80°
2026-04-28 16:31 53.89710 -8.92956 1706 ft 110 kts 80°
2026-04-28 16:31 53.89851 -8.91686 1560 ft 109 kts 80°
2026-04-28 16:31 53.89997 -8.90442 1420 ft 106 kts 80°
2026-04-28 16:32 53.90137 -8.89232 1287 ft 104 kts 80°
2026-04-28 16:32 53.90415 -8.86863 1021 ft 101 kts 79°
2026-04-28 16:32 53.90560 -8.85698 896 ft 101 kts 77°
2026-04-28 16:33 53.90726 -8.84525 734 ft 112 kts 78°
2026-04-28 16:33 53.90841 -8.83544 685 ft 141 kts 82°
2026-04-28 16:33 53.91066 -8.81554 649 ft 112 kts 81°
2026-04-28 16:33 53.91160 -8.80706 641 ft 22 kts 77°
2026-04-28 16:34 53.91165 -8.80586 641 ft 3 kts 52°
2026-04-28 16:34 53.91174 -8.80586 641 ft 1 kts 323°
2026-04-28 16:34 53.91175 -8.80608 641 ft 4 kts 265°
2026-04-28 16:34 53.91165 -8.80676 641 ft 8 kts 259°
2026-04-28 16:35 53.91156 -8.80780 641 ft 9 kts 259°
2026-04-28 16:35 53.91161 -8.80854 641 ft 7 kts 317°
2026-04-28 16:35 53.91213 -8.80878 640 ft 10 kts 348°
2026-04-28 16:35 53.91276 -8.80899 639 ft 9 kts 349°
2026-04-28 16:36 53.91310 -8.80910 639 ft 0 kts 348°
2026-04-28 16:36 53.91333 -8.80918 639 ft 5 kts 349°
2026-04-28 16:37 53.91357 -8.80898 639 ft 4 kts 23°
2026-04-28 16:37 53.91387 -8.80900 639 ft 4 kts 348°
2026-04-28 16:37 53.91401 -8.80908 639 ft 2 kts 327°
2026-04-28 16:38 53.91405 -8.80937 639 ft 1 kts 286°
2026-04-28 16:38 53.91406 -8.80939 639 ft 0 kts 287°
2026-04-28 16:53 53.91406 -8.80938 639 ft 0 kts 287°